Regional Weather Roundup
Issued by NWS

Home | Current Version | Previous Version | Text Only | Print | Product List | Glossary On
Versions: 1 2 3 4 5 6 7 8 9 10 11 12 13 14 15 16 17 18 19 20 21 22 23 24 25 26 27 28 29 30 31 32 33 34 35 36 37 38 39 40 41 42 43 44 45 46 47 48 49 50
000
ASUS46 KPQR 041210
RWROR

OREGON REGIONAL WEATHER ROUNDUP
NATIONAL WEATHER SERVICE PORTLAND OR
500 AM PDT WED MAY 04 2016

NOTE: "FAIR" INDICATES FEW OR NO CLOUDS BELOW 12,000 FEET WITH
NO SIGNIFICANT WEATHER AND/OR OBSTRUCTIONS TO VISIBILITY.

ORZ001>013-041300-
NORTHWEST OREGON


CITY           SKY/WX    TMP DP  RH WIND       PRES   REMARKS
ASTORIA        CLOUDY    53  46  77 N12       30.08F
6HR MIN TEMP:  53; 6HR MAX TEMP:  55;

NEWPORT        CLOUDY    52  50  93 N6        30.05F
PORTLAND       CLOUDY    53  48  83 NW7       30.04F
6HR MIN TEMP:  53; 6HR MAX TEMP:  58; 6HR PCP:  0.05;

VANCOUVER WA   MOCLDY    52  48  86 CALM      30.04S
6HR MIN TEMP:  52; 6HR MAX TEMP:  57; 6HR PCP:  0.03;

SCAPPOOSE      MOCLDY    52  48  86 N7        30.03F
6HR MIN TEMP:  52; 6HR MAX TEMP:  56; 6HR PCP:  0.01;

HILLSBORO      CLOUDY    51  46  83 W7        30.03F
6HR MIN TEMP:  51; 6HR MAX TEMP:  57; 6HR PCP: TRACE;

AURORA         CLOUDY    51  47  86 N7        30.04F
6HR MIN TEMP:  51; 6HR MAX TEMP:  56; 6HR PCP: TRACE;

MCMINNVILLE    CLOUDY    53  44  71 N9        30.03F
6HR MIN TEMP:  53; 6HR MAX TEMP:  57;

SALEM          CLOUDY    55  49  80 N9        30.01F
6HR MIN TEMP:  55; 6HR MAX TEMP:  58; 6HR PCP: TRACE;

CORVALLIS        N/A     54  50  87 CALM      30.01F
EUGENE         CLOUDY    54  52  93 N6        30.00F
6HR MIN TEMP:  52; 6HR MAX TEMP:  59;

$$

ORZ021-028-041300-
SOUTHWEST OREGON


CITY           SKY/WX    TMP DP  RH WIND       PRES   REMARKS
NORTH BEND     CLOUDY    55  54  94 N8        30.01R
6HR MIN TEMP:  55; 6HR MAX TEMP:  55; 6HR PCP:  0.01;

BROOKINGS      CLOUDY    54  53  97 CALM      29.87F
ROSEBURG       CLOUDY    57  53  86 CALM      29.98F
6HR MIN TEMP:  56; 6HR MAX TEMP:  57;

SEXTON SUMMIT  FOG       47  46  97 N10       29.96F VSB 1/4
6HR MIN TEMP:  47; 6HR MAX TEMP:  51; 6HR PCP: TRACE;

MEDFORD        CLOUDY    54  52  93 NW6       29.94S
6HR MIN TEMP:  54; 6HR MAX TEMP:  60;

$$

ORZ014>016-041-041300-
COLUMBIA GORGE


CITY           SKY/WX    TMP DP  RH WIND       PRES   REMARKS
TROUTDALE      CLOUDY    54  48  80 W3        30.03F
6HR MIN TEMP:  53; 6HR MAX TEMP:  61; 6HR PCP:  0.05;

HOOD RIVER     MOCLDY    54  50  87 CALM      29.99S
THE DALLES     MOCLDY    59  50  72 CALM      29.97F
6HR MIN TEMP:  57; 6HR MAX TEMP:  66;

$$

ORZ029>031-041-044-049-050-061>064-502-503-505>511-041300-
EASTERN OREGON


CITY           SKY/WX    TMP DP  RH WIND       PRES   REMARKS
REDMOND        CLOUDY    48  44  86 CALM      30.01F
6HR MIN TEMP:  47; 6HR MAX TEMP:  54; 6HR PCP: TRACE;

BEND           CLOUDY    50  45  81 CALM      30.01F
PRINEVILLE     CLOUDY    48  46  93 CALM      30.01F
KLAMATH FALLS  CLOUDY    47  44  90 CALM      30.00F
6HR MIN TEMP:  47; 6HR MAX TEMP:  54; 6HR PCP: TRACE;

LAKEVIEW       CLOUDY    50  37  62 NW5       30.06S
HERMISTON      CLOUDY    65  49  56 SW12      29.99R
6HR MIN TEMP:  62; 6HR MAX TEMP:  69; 6HR PCP: TRACE;

PENDLETON      CLOUDY    57  44  62 CALM      30.00R
6HR MIN TEMP:  54; 6HR MAX TEMP:  67;

JOHN DAY       CLOUDY    55  44  66 CALM      30.05F
MEACHAM        MOCLDY    46  41  82 CALM      30.06S
6HR MIN TEMP:  46; 6HR MAX TEMP:  59; 6HR PCP: TRACE;

LA GRANDE      CLOUDY    54  37  54 N5        30.00F
6HR MIN TEMP:  54; 6HR MAX TEMP:  66;

BAKER CITY     MOCLDY    49  40  71 SW7       30.03S
6HR MIN TEMP:  43; 6HR MAX TEMP:  53;

BURNS          PTCLDY    51  38  60 W6        30.04S
6HR MIN TEMP:  49; 6HR MAX TEMP:  61;

ROME             N/A     54  33  45 NE10      30.00S
6HR MIN TEMP:  53; 6HR MAX TEMP:  64;

ONTARIO        CLOUDY    51  42  71 CALM      29.99R
6HR MIN TEMP:  51; 6HR MAX TEMP:  62;

$$



USA.gov is the U.S. government's official web portal to all federal, state and local government web resources and services.